Year,Month,Day,Hour,Minute,Value (Times are PST for temperature in C)
2002,09,23,00,00,11.60
2002,09,23,00,01,11.60
2002,09,23,00,02,11.60
2002,09,23,00,03,11.60
2002,09,23,00,04,11.60
2002,09,23,00,05,11.60
2002,09,23,00,06,11.60
2002,09,23,00,07,11.60
2002,09,23,00,08,11.60
2002,09,23,00,09,11.50
2002,09,23,00,10,11.40
2002,09,23,00,11,11.40
2002,09,23,00,12,11.50
2002,09,23,00,13,11.60
2002,09,23,00,14,11.60
2002,09,23,00,15,11.60
2002,09,23,00,16,11.60
2002,09,23,00,17,11.60
2002,09,23,00,18,11.60
2002,09,23,00,19,11.60
2002,09,23,00,20,11.60
2002,09,23,00,21,11.60
2002,09,23,00,22,11.60
2002,09,23,00,23,11.60
2002,09,23,00,24,11.60
2002,09,23,00,25,11.60
2002,09,23,00,26,11.60
2002,09,23,00,27,11.60
2002,09,23,00,28,11.60
2002,09,23,00,29,11.60
2002,09,23,00,30,11.60
2002,09,23,00,31,11.60
2002,09,23,00,32,11.60
2002,09,23,00,33,11.60
2002,09,23,00,34,11.60
2002,09,23,00,35,11.60
2002,09,23,00,36,11.60
2002,09,23,00,37,11.60
2002,09,23,00,38,11.60
2002,09,23,00,39,11.60
2002,09,23,00,40,11.60
2002,09,23,00,41,11.50
2002,09,23,00,42,11.40
2002,09,23,00,43,11.40
2002,09,23,00,44,11.40
2002,09,23,00,45,11.40
2002,09,23,00,46,11.40
2002,09,23,00,47,11.40
2002,09,23,00,48,11.40
2002,09,23,00,49,11.30
2002,09,23,00,50,11.30
2002,09,23,00,51,11.20
2002,09,23,00,52,11.20
2002,09,23,00,53,11.10
2002,09,23,00,54,11.10
2002,09,23,00,55,11.10
2002,09,23,00,56,11.10
2002,09,23,00,57,11.10
2002,09,23,00,58,11.10
2002,09,23,00,59,11.10
2002,09,23,01,00,11.10
2002,09,23,01,01,11.10
2002,09,23,01,02,11.10
2002,09,23,01,03,11.10
2002,09,23,01,04,11.10
2002,09,23,01,05,11.10
2002,09,23,01,06,11.00
2002,09,23,01,07,10.90
2002,09,23,01,08,10.90
2002,09,23,01,09,10.90
2002,09,23,01,10,11.00
2002,09,23,01,11,11.10
2002,09,23,01,12,11.10
2002,09,23,01,13,11.10
2002,09,23,01,14,11.10
2002,09,23,01,15,11.10
2002,09,23,01,16,11.10
2002,09,23,01,17,11.10
2002,09,23,01,18,11.10
2002,09,23,01,19,11.10
2002,09,23,01,20,11.00
2002,09,23,01,21,11.00
2002,09,23,01,22,10.90
2002,09,23,01,23,10.90
2002,09,23,01,24,10.90
2002,09,23,01,25,10.90
2002,09,23,01,26,10.90
2002,09,23,01,27,10.90
2002,09,23,01,28,10.90
2002,09,23,01,29,10.90
2002,09,23,01,30,10.90
2002,09,23,01,31,10.90
2002,09,23,01,32,10.90
2002,09,23,01,33,10.90
2002,09,23,01,34,10.90
2002,09,23,01,35,10.90
2002,09,23,01,36,10.90
2002,09,23,01,37,10.90
2002,09,23,01,38,10.90
2002,09,23,01,39,10.90
2002,09,23,01,40,10.90
2002,09,23,01,41,10.90
2002,09,23,01,42,10.90
2002,09,23,01,43,10.90
2002,09,23,01,44,10.90
2002,09,23,01,45,10.90
2002,09,23,01,46,10.90
2002,09,23,01,47,10.80
2002,09,23,01,48,10.80
2002,09,23,01,49,10.80
2002,09,23,01,50,10.80
2002,09,23,01,51,10.70
2002,09,23,01,52,10.70
2002,09,23,01,53,10.70
2002,09,23,01,54,10.70
2002,09,23,01,55,10.70
2002,09,23,01,56,10.70
2002,09,23,01,57,10.70
2002,09,23,01,58,10.60
2002,09,23,01,59,10.60
2002,09,23,02,00,10.60
2002,09,23,02,01,10.60
2002,09,23,02,02,10.60
2002,09,23,02,03,10.60
2002,09,23,02,04,10.60
2002,09,23,02,05,10.60
2002,09,23,02,06,10.60
2002,09,23,02,07,10.60
2002,09,23,02,08,10.60
2002,09,23,02,09,10.50
2002,09,23,02,10,10.40
2002,09,23,02,11,10.40
2002,09,23,02,12,10.40
2002,09,23,02,13,10.40
2002,09,23,02,14,10.40
2002,09,23,02,15,10.40
2002,09,23,02,16,10.40
2002,09,23,02,17,10.40
2002,09,23,02,18,10.40
2002,09,23,02,19,10.40
2002,09,23,02,20,10.40
2002,09,23,02,21,10.40
2002,09,23,02,22,10.40
2002,09,23,02,23,10.40
2002,09,23,02,24,10.40
2002,09,23,02,25,10.40
2002,09,23,02,26,10.40
2002,09,23,02,27,10.40
2002,09,23,02,28,10.40
2002,09,23,02,29,10.40
2002,09,23,02,30,10.40
2002,09,23,02,31,10.40
2002,09,23,02,32,10.40
2002,09,23,02,33,10.40
2002,09,23,02,34,10.40
2002,09,23,02,35,10.40
2002,09,23,02,36,10.40
2002,09,23,02,37,10.40
2002,09,23,02,38,10.40
2002,09,23,02,39,10.40
2002,09,23,02,40,10.40
2002,09,23,02,41,10.40
2002,09,23,02,42,10.50
2002,09,23,02,43,10.60
2002,09,23,02,44,10.60
2002,09,23,02,45,10.60
2002,09,23,02,46,10.50
2002,09,23,02,47,10.60
2002,09,23,02,48,10.60
2002,09,23,02,49,10.60
2002,09,23,02,50,10.60
2002,09,23,02,51,10.60
2002,09,23,02,52,10.60
2002,09,23,02,53,10.60
2002,09,23,02,54,10.60
2002,09,23,02,55,10.60
2002,09,23,02,56,10.50
2002,09,23,02,57,10.40
2002,09,23,02,58,10.40
2002,09,23,02,59,10.40
2002,09,23,03,00,10.40
2002,09,23,03,01,10.40
2002,09,23,03,02,10.40
2002,09,23,03,03,10.30
2002,09,23,03,04,10.30
2002,09,23,03,05,10.20
2002,09,23,03,06,10.20
2002,09,23,03,07,10.20
2002,09,23,03,08,10.10
2002,09,23,03,09,10.10
2002,09,23,03,10,10.10
2002,09,23,03,11,10.10
2002,09,23,03,12,10.10
2002,09,23,03,13,10.10
2002,09,23,03,14,10.10
2002,09,23,03,15,10.10
2002,09,23,03,16,10.10
2002,09,23,03,17,10.10
2002,09,23,03,18,10.10
2002,09,23,03,19,10.10
2002,09,23,03,20,10.00
2002,09,23,03,21,9.90
2002,09,23,03,22,9.90
2002,09,23,03,23,9.90
2002,09,23,03,24,9.90
2002,09,23,03,25,9.90
2002,09,23,03,26,9.90
2002,09,23,03,27,9.90
2002,09,23,03,28,9.90
2002,09,23,03,29,9.90
2002,09,23,03,30,9.90
2002,09,23,03,31,9.90
2002,09,23,03,32,9.90
2002,09,23,03,33,9.90
2002,09,23,03,34,9.90
2002,09,23,03,35,9.90
2002,09,23,03,36,9.90
2002,09,23,03,37,9.90
2002,09,23,03,38,9.90
2002,09,23,03,39,9.80
2002,09,23,03,40,9.80
2002,09,23,03,41,9.80
2002,09,23,03,42,9.80
2002,09,23,03,43,9.70
2002,09,23,03,44,9.70
2002,09,23,03,45,9.70
2002,09,23,03,46,9.70
2002,09,23,03,47,9.70
2002,09,23,03,48,9.70
2002,09,23,03,49,9.70
2002,09,23,03,50,9.70
2002,09,23,03,51,9.70
2002,09,23,03,52,9.70
2002,09,23,03,53,9.60
2002,09,23,03,54,9.60
2002,09,23,03,55,9.60
2002,09,23,03,56,9.60
2002,09,23,03,57,9.60
2002,09,23,03,58,9.60
2002,09,23,03,59,9.60
2002,09,23,04,00,9.60
2002,09,23,04,01,9.60
2002,09,23,04,02,9.60
2002,09,23,04,03,9.60
2002,09,23,04,04,9.60
2002,09,23,04,05,9.60
2002,09,23,04,06,9.60
2002,09,23,04,07,9.60
2002,09,23,04,08,9.50
2002,09,23,04,09,9.50
2002,09,23,04,10,9.50
2002,09,23,04,11,9.50
2002,09,23,04,12,9.50
2002,09,23,04,13,9.50
2002,09,23,04,14,9.50
2002,09,23,04,15,9.50
2002,09,23,04,16,9.40
2002,09,23,04,17,9.40
2002,09,23,04,18,9.40
2002,09,23,04,19,9.40
2002,09,23,04,20,9.40
2002,09,23,04,21,9.40
2002,09,23,04,22,9.40
2002,09,23,04,23,9.40
2002,09,23,04,24,9.40
2002,09,23,04,25,9.30
2002,09,23,04,26,9.30
2002,09,23,04,27,9.30
2002,09,23,04,28,9.30
2002,09,23,04,29,9.30
2002,09,23,04,30,9.30
2002,09,23,04,31,9.30
2002,09,23,04,32,9.30
2002,09,23,04,33,9.30
2002,09,23,04,34,9.30
2002,09,23,04,35,9.30
2002,09,23,04,36,9.30
2002,09,23,04,37,9.30
2002,09,23,04,38,9.30
2002,09,23,04,39,9.40
2002,09,23,04,40,9.40
2002,09,23,04,41,9.40
2002,09,23,04,42,9.40
2002,09,23,04,43,9.40
2002,09,23,04,44,9.40
2002,09,23,04,45,9.40
2002,09,23,04,46,9.40
2002,09,23,04,47,9.50
2002,09,23,04,48,9.50
2002,09,23,04,49,9.50
2002,09,23,04,50,9.50
2002,09,23,04,51,9.50
2002,09,23,04,52,9.60
2002,09,23,04,53,9.60
2002,09,23,04,54,9.60
2002,09,23,04,55,9.60
2002,09,23,04,56,9.60
2002,09,23,04,57,9.70
2002,09,23,04,58,9.70
2002,09,23,04,59,9.70
2002,09,23,05,00,9.70
2002,09,23,05,01,9.70
2002,09,23,05,02,9.70
2002,09,23,05,03,9.60
2002,09,23,05,04,9.60
2002,09,23,05,05,9.60
2002,09,23,05,06,9.60
2002,09,23,05,07,9.60
2002,09,23,05,08,9.60
2002,09,23,05,09,9.60
2002,09,23,05,10,9.60
2002,09,23,05,11,9.60
2002,09,23,05,12,9.60
2002,09,23,05,13,9.60
2002,09,23,05,14,9.50
2002,09,23,05,15,9.50
2002,09,23,05,16,9.50
2002,09,23,05,17,9.50
2002,09,23,05,18,9.50
2002,09,23,05,19,9.50
2002,09,23,05,20,9.50
2002,09,23,05,21,9.50
2002,09,23,05,22,9.50
2002,09,23,05,23,9.50
2002,09,23,05,24,9.50
2002,09,23,05,25,9.50
2002,09,23,05,26,9.50
2002,09,23,05,27,9.50
2002,09,23,05,28,9.50
2002,09,23,05,29,9.50
2002,09,23,05,30,9.50
2002,09,23,05,31,9.50
2002,09,23,05,32,9.40
2002,09,23,05,33,9.40
2002,09,23,05,34,9.40
2002,09,23,05,35,9.40
2002,09,23,05,36,9.40
2002,09,23,05,37,9.30
2002,09,23,05,38,9.30
2002,09,23,05,39,9.30
2002,09,23,05,40,9.40
2002,09,23,05,41,9.40
2002,09,23,05,42,9.40
2002,09,23,05,43,9.40
2002,09,23,05,44,9.40
2002,09,23,05,45,9.40
2002,09,23,05,46,9.50
2002,09,23,05,47,9.50
2002,09,23,05,48,9.50
2002,09,23,05,49,9.40
2002,09,23,05,50,9.40
2002,09,23,05,51,9.40
2002,09,23,05,52,9.40
2002,09,23,05,53,9.40
2002,09,23,05,54,9.40
2002,09,23,05,55,9.40
2002,09,23,05,56,9.30
2002,09,23,05,57,9.30
2002,09,23,05,58,9.30
2002,09,23,05,59,9.40
2002,09,23,06,00,9.40
2002,09,23,06,01,9.50
2002,09,23,06,02,9.50
2002,09,23,06,03,9.50
2002,09,23,06,04,9.50
2002,09,23,06,05,9.50
2002,09,23,06,06,9.50
2002,09,23,06,07,9.50
2002,09,23,06,08,9.60
2002,09,23,06,09,9.60
2002,09,23,06,10,9.60
2002,09,23,06,11,9.60
2002,09,23,06,12,9.60
2002,09,23,06,13,9.60
2002,09,23,06,14,9.60
2002,09,23,06,15,9.60
2002,09,23,06,16,9.60
2002,09,23,06,17,9.60
2002,09,23,06,18,9.50
2002,09,23,06,19,9.50
2002,09,23,06,20,9.50
2002,09,23,06,21,9.50
2002,09,23,06,22,9.60
2002,09,23,06,23,9.60
2002,09,23,06,24,9.60
2002,09,23,06,25,9.70
2002,09,23,06,26,9.70
2002,09,23,06,27,9.70
2002,09,23,06,28,9.80
2002,09,23,06,29,9.90
2002,09,23,06,30,10.00
2002,09,23,06,31,10.10
2002,09,23,06,32,10.10
2002,09,23,06,33,10.10
2002,09,23,06,34,10.10
2002,09,23,06,35,10.00
2002,09,23,06,36,9.90
2002,09,23,06,37,9.90
2002,09,23,06,38,9.80
2002,09,23,06,39,9.70
2002,09,23,06,40,9.70
2002,09,23,06,41,9.70
2002,09,23,06,42,9.70
2002,09,23,06,43,9.70
2002,09,23,06,44,9.70
2002,09,23,06,45,9.70
2002,09,23,06,46,9.70
2002,09,23,06,47,9.70
2002,09,23,06,48,9.70
2002,09,23,06,49,9.70
2002,09,23,06,50,9.70
2002,09,23,06,51,9.70
2002,09,23,06,52,9.70
2002,09,23,06,53,9.70
2002,09,23,06,54,9.80
2002,09,23,06,55,9.80
2002,09,23,06,56,9.80
2002,09,23,06,57,9.80
2002,09,23,06,58,9.80
2002,09,23,06,59,9.90
2002,09,23,07,00,9.90
2002,09,23,07,01,9.90
2002,09,23,07,02,9.80
2002,09,23,07,03,9.80
2002,09,23,07,04,9.70
2002,09,23,07,05,9.70
2002,09,23,07,06,9.70
2002,09,23,07,07,9.70
2002,09,23,07,08,9.60
2002,09,23,07,09,9.60
2002,09,23,07,10,9.50
2002,09,23,07,11,9.50
2002,09,23,07,12,9.40
2002,09,23,07,13,9.40
2002,09,23,07,14,9.40
2002,09,23,07,15,9.40
2002,09,23,07,16,9.50
2002,09,23,07,17,9.50
2002,09,23,07,18,9.60
2002,09,23,07,19,9.60
2002,09,23,07,20,9.70
2002,09,23,07,21,9.70
2002,09,23,07,22,9.80
2002,09,23,07,23,9.90
2002,09,23,07,24,9.90
2002,09,23,07,25,9.90
2002,09,23,07,26,9.90
2002,09,23,07,27,9.90
2002,09,23,07,28,10.00
2002,09,23,07,29,10.10
2002,09,23,07,30,10.10
2002,09,23,07,31,10.20
2002,09,23,07,32,10.20
2002,09,23,07,33,10.40
2002,09,23,07,34,10.40
2002,09,23,07,35,10.40
2002,09,23,07,36,10.40
2002,09,23,07,37,10.40
2002,09,23,07,38,10.50
2002,09,23,07,39,10.60
2002,09,23,07,40,10.60
2002,09,23,07,41,10.60
2002,09,23,07,42,10.60
2002,09,23,07,43,10.60
2002,09,23,07,44,10.60
2002,09,23,07,45,10.60
2002,09,23,07,46,10.60
2002,09,23,07,47,10.60
2002,09,23,07,48,10.60
2002,09,23,07,49,10.60
2002,09,23,07,50,10.60
2002,09,23,07,51,10.60
2002,09,23,07,52,10.60
2002,09,23,07,53,10.70
2002,09,23,07,54,10.70
2002,09,23,07,55,10.70
2002,09,23,07,56,10.80
2002,09,23,07,57,10.80
2002,09,23,07,58,10.80
2002,09,23,07,59,10.90
2002,09,23,08,00,10.90
2002,09,23,08,01,10.90
2002,09,23,08,02,11.00
2002,09,23,08,03,11.10
2002,09,23,08,04,11.10
2002,09,23,08,05,11.20
2002,09,23,08,06,11.30
2002,09,23,08,07,11.40
2002,09,23,08,08,11.40
2002,09,23,08,09,11.50
2002,09,23,08,10,11.60
2002,09,23,08,11,11.70
2002,09,23,08,12,11.80
2002,09,23,08,13,11.80
2002,09,23,08,14,11.80
2002,09,23,08,15,11.90
2002,09,23,08,16,12.00
2002,09,23,08,17,12.00
2002,09,23,08,18,12.10
2002,09,23,08,19,12.20
2002,09,23,08,20,12.30
2002,09,23,08,21,12.40
2002,09,23,08,22,12.40
2002,09,23,08,23,12.50
2002,09,23,08,24,12.60
2002,09,23,08,25,12.70
2002,09,23,08,26,12.80
2002,09,23,08,27,12.90
2002,09,23,08,28,13.00
2002,09,23,08,29,13.10
2002,09,23,08,30,13.20
2002,09,23,08,31,13.30
2002,09,23,08,32,13.30
2002,09,23,08,33,13.30
2002,09,23,08,34,13.40
2002,09,23,08,35,13.40
2002,09,23,08,36,13.40
2002,09,23,08,37,13.40
2002,09,23,08,38,13.40
2002,09,23,08,39,13.40
2002,09,23,08,40,13.40
2002,09,23,08,41,13.50
2002,09,23,08,42,13.60
2002,09,23,08,43,13.70
2002,09,23,08,44,13.70
2002,09,23,08,45,13.70
2002,09,23,08,46,13.70
2002,09,23,08,47,13.70
2002,09,23,08,48,13.70
2002,09,23,08,49,13.70
2002,09,23,08,50,13.70
2002,09,23,08,51,13.70
2002,09,23,08,52,13.70
2002,09,23,08,53,13.70
2002,09,23,08,54,13.70
2002,09,23,08,55,13.70
2002,09,23,08,56,13.70
2002,09,23,08,57,13.80
2002,09,23,08,58,13.80
2002,09,23,08,59,13.80
2002,09,23,09,00,13.80
2002,09,23,09,01,13.90
2002,09,23,09,02,13.90
2002,09,23,09,03,13.90
2002,09,23,09,04,13.90
2002,09,23,09,05,13.90
2002,09,23,09,06,14.00
2002,09,23,09,07,14.00
2002,09,23,09,08,14.00
2002,09,23,09,09,14.00
2002,09,23,09,10,14.00
2002,09,23,09,11,14.10
2002,09,23,09,12,14.20
2002,09,23,09,13,14.20
2002,09,23,09,14,14.20
2002,09,23,09,15,14.20
2002,09,23,09,16,14.20
2002,09,23,09,17,14.30
2002,09,23,09,18,14.40
2002,09,23,09,19,14.40
2002,09,23,09,20,14.50
2002,09,23,09,21,14.50
2002,09,23,09,22,14.50
2002,09,23,09,23,14.50
2002,09,23,09,24,14.50
2002,09,23,09,25,14.60
2002,09,23,09,26,14.60
2002,09,23,09,27,14.60
2002,09,23,09,28,14.60
2002,09,23,09,29,14.60
2002,09,23,09,30,14.60
2002,09,23,09,31,14.60
2002,09,23,09,32,14.70
2002,09,23,09,33,14.70
2002,09,23,09,34,14.70
2002,09,23,09,35,14.60
2002,09,23,09,36,14.60
2002,09,23,09,37,14.50
2002,09,23,09,38,14.50
2002,09,23,09,39,14.40
2002,09,23,09,40,14.40
2002,09,23,09,41,14.40
2002,09,23,09,42,14.40
2002,09,23,09,43,14.40
2002,09,23,09,44,14.40
2002,09,23,09,45,14.40
2002,09,23,09,46,14.30
2002,09,23,09,47,14.30
2002,09,23,09,48,14.30
2002,09,23,09,49,14.30
2002,09,23,09,50,14.30
2002,09,23,09,51,14.40
2002,09,23,09,52,14.50
2002,09,23,09,53,14.60
2002,09,23,09,54,14.60
2002,09,23,09,55,14.70
2002,09,23,09,56,14.80
2002,09,23,09,57,14.80
2002,09,23,09,58,14.80
2002,09,23,09,59,14.90
2002,09,23,10,00,14.90
2002,09,23,10,01,14.90
2002,09,23,10,02,15.00
2002,09,23,10,03,15.00
2002,09,23,10,04,15.00
2002,09,23,10,05,15.10
2002,09,23,10,06,15.10
2002,09,23,10,07,15.10
2002,09,23,10,08,15.00
2002,09,23,10,09,15.00
2002,09,23,10,10,15.00
2002,09,23,10,11,15.00
2002,09,23,10,12,15.00
2002,09,23,10,13,15.00
2002,09,23,10,14,14.90
2002,09,23,10,15,14.90
2002,09,23,10,16,15.00
2002,09,23,10,17,15.00
2002,09,23,10,18,15.00
2002,09,23,10,19,15.00
2002,09,23,10,20,15.00
2002,09,23,10,21,15.10
2002,09,23,10,22,15.10
2002,09,23,10,23,15.20
2002,09,23,10,24,15.20
2002,09,23,10,25,15.30
2002,09,23,10,26,15.30
2002,09,23,10,27,15.30
2002,09,23,10,28,15.40
2002,09,23,10,29,15.40
2002,09,23,10,30,15.50
2002,09,23,10,31,15.60
2002,09,23,10,32,15.60
2002,09,23,10,33,15.60
2002,09,23,10,34,15.60
2002,09,23,10,35,15.70
2002,09,23,10,36,15.70
2002,09,23,10,37,15.80
2002,09,23,10,38,15.80
2002,09,23,10,39,15.80
2002,09,23,10,40,15.90
2002,09,23,10,41,15.90
2002,09,23,10,42,16.00
2002,09,23,10,43,16.10
2002,09,23,10,44,16.10
2002,09,23,10,45,16.10
2002,09,23,10,46,16.10
2002,09,23,10,47,16.00
2002,09,23,10,48,15.90
2002,09,23,10,49,16.00
2002,09,23,10,50,16.10
2002,09,23,10,51,16.10
2002,09,23,10,52,16.10
2002,09,23,10,53,16.20
2002,09,23,10,54,16.20
2002,09,23,10,55,16.20
2002,09,23,10,56,16.30
2002,09,23,10,57,16.30
2002,09,23,10,58,16.20
2002,09,23,10,59,16.20
2002,09,23,11,00,16.20
2002,09,23,11,01,16.20
2002,09,23,11,02,16.10
2002,09,23,11,03,16.10
2002,09,23,11,04,16.20
2002,09,23,11,05,16.10
2002,09,23,11,06,16.10
2002,09,23,11,07,16.20
2002,09,23,11,08,16.20
2002,09,23,11,09,16.30
2002,09,23,11,10,16.40
2002,09,23,11,11,16.40
2002,09,23,11,12,16.50
2002,09,23,11,13,16.60
2002,09,23,11,14,16.70
2002,09,23,11,15,16.70
2002,09,23,11,16,16.70
2002,09,23,11,17,16.70
2002,09,23,11,18,16.70
2002,09,23,11,19,16.80
2002,09,23,11,20,16.70
2002,09,23,11,21,16.60
2002,09,23,11,22,16.60
2002,09,23,11,23,16.60
2002,09,23,11,24,16.70
2002,09,23,11,25,16.70
2002,09,23,11,26,16.50
2002,09,23,11,27,16.40
2002,09,23,11,28,16.40
2002,09,23,11,29,16.40
2002,09,23,11,30,16.30
2002,09,23,11,31,16.40
2002,09,23,11,32,16.50
2002,09,23,11,33,16.60
2002,09,23,11,34,16.70
2002,09,23,11,35,16.70
2002,09,23,11,36,16.70
2002,09,23,11,37,16.70
2002,09,23,11,38,16.80
2002,09,23,11,39,16.90
2002,09,23,11,40,17.00
2002,09,23,11,41,17.00
2002,09,23,11,42,17.00
2002,09,23,11,43,17.00
2002,09,23,11,44,17.10
2002,09,23,11,45,17.20
2002,09,23,11,46,17.20
2002,09,23,11,47,17.20
2002,09,23,11,48,17.20
2002,09,23,11,49,17.20
2002,09,23,11,50,17.20
2002,09,23,11,51,17.20
2002,09,23,11,52,17.20
2002,09,23,11,53,17.30
2002,09,23,11,54,17.20
2002,09,23,11,55,17.20
2002,09,23,11,56,17.10
2002,09,23,11,57,17.10
2002,09,23,11,58,17.00
2002,09,23,11,59,16.90
2002,09,23,12,00,16.90
2002,09,23,12,01,16.80
2002,09,23,12,02,16.80
2002,09,23,12,03,16.90
2002,09,23,12,04,16.90
2002,09,23,12,05,17.00
2002,09,23,12,06,17.20
2002,09,23,12,07,17.20
2002,09,23,12,08,17.20
2002,09,23,12,09,17.20
2002,09,23,12,10,17.30
2002,09,23,12,11,17.30
2002,09,23,12,12,17.30
2002,09,23,12,13,17.30
2002,09,23,12,14,17.20
2002,09,23,12,15,17.10
2002,09,23,12,16,17.00
2002,09,23,12,17,17.00
2002,09,23,12,18,16.90
2002,09,23,12,19,16.80
2002,09,23,12,20,16.90
2002,09,23,12,21,16.70
2002,09,23,12,22,16.60
2002,09,23,12,23,16.50
2002,09,23,12,24,16.40
2002,09,23,12,25,16.20
2002,09,23,12,26,16.20
2002,09,23,12,27,16.30
2002,09,23,12,28,16.40
2002,09,23,12,29,16.40
2002,09,23,12,30,16.40
2002,09,23,12,31,16.50
2002,09,23,12,32,16.60
2002,09,23,12,33,16.70
2002,09,23,12,34,16.80
2002,09,23,12,35,16.90
2002,09,23,12,36,16.90
2002,09,23,12,37,16.90
2002,09,23,12,38,17.00
2002,09,23,12,39,17.00
2002,09,23,12,40,17.20
2002,09,23,12,41,17.40
2002,09,23,12,42,17.40
2002,09,23,12,43,17.50
2002,09,23,12,44,17.40
2002,09,23,12,45,17.30
2002,09,23,12,46,17.20
2002,09,23,12,47,17.00
2002,09,23,12,48,17.00
2002,09,23,12,49,17.10
2002,09,23,12,50,17.00
2002,09,23,12,51,16.90
2002,09,23,12,52,16.70
2002,09,23,12,53,16.50
2002,09,23,12,54,16.50
2002,09,23,12,55,16.60
2002,09,23,12,56,16.60
2002,09,23,12,57,16.50
2002,09,23,12,58,16.60
2002,09,23,12,59,16.80
2002,09,23,13,00,17.00
2002,09,23,13,01,17.00
2002,09,23,13,02,17.10
2002,09,23,13,03,17.20
2002,09,23,13,04,17.10
2002,09,23,13,05,17.10
2002,09,23,13,06,17.10
2002,09,23,13,07,17.10
2002,09,23,13,08,17.20
2002,09,23,13,09,17.10
2002,09,23,13,10,17.10
2002,09,23,13,11,17.10
2002,09,23,13,12,17.00
2002,09,23,13,13,16.90
2002,09,23,13,14,16.80
2002,09,23,13,15,16.70
2002,09,23,13,16,16.70
2002,09,23,13,17,16.90
2002,09,23,13,18,17.00
2002,09,23,13,19,17.20
2002,09,23,13,20,17.10
2002,09,23,13,21,17.00
2002,09,23,13,22,17.00
2002,09,23,13,23,17.00
2002,09,23,13,24,17.00
2002,09,23,13,25,17.20
2002,09,23,13,26,17.30
2002,09,23,13,27,17.30
2002,09,23,13,28,17.20
2002,09,23,13,29,17.30
2002,09,23,13,30,17.30
2002,09,23,13,31,17.50
2002,09,23,13,32,17.50
2002,09,23,13,33,17.40
2002,09,23,13,34,17.40
2002,09,23,13,35,17.30
2002,09,23,13,36,17.40
2002,09,23,13,37,17.50
2002,09,23,13,38,17.50
2002,09,23,13,39,17.60
2002,09,23,13,40,17.70
2002,09,23,13,41,17.80
2002,09,23,13,42,17.80
2002,09,23,13,43,17.70
2002,09,23,13,44,17.60
2002,09,23,13,45,17.50
2002,09,23,13,46,17.50
2002,09,23,13,47,17.40
2002,09,23,13,48,17.30
2002,09,23,13,49,17.30
2002,09,23,13,50,17.40
2002,09,23,13,51,17.50
2002,09,23,13,52,17.40
2002,09,23,13,53,17.40
2002,09,23,13,54,17.30
2002,09,23,13,55,17.30
2002,09,23,13,56,17.30
2002,09,23,13,57,17.20
2002,09,23,13,58,17.20
2002,09,23,13,59,17.20
2002,09,23,14,00,17.10
2002,09,23,14,01,17.20
2002,09,23,14,02,17.30
2002,09,23,14,03,17.40
2002,09,23,14,04,17.60
2002,09,23,14,05,17.70
2002,09,23,14,06,17.70
2002,09,23,14,07,17.60
2002,09,23,14,08,17.60
2002,09,23,14,09,17.50
2002,09,23,14,10,17.40
2002,09,23,14,11,17.30
2002,09,23,14,12,17.30
2002,09,23,14,13,17.30
2002,09,23,14,14,17.30
2002,09,23,14,15,17.40
2002,09,23,14,16,17.40
2002,09,23,14,17,17.40
2002,09,23,14,18,17.40
2002,09,23,14,19,17.30
2002,09,23,14,20,17.20
2002,09,23,14,21,17.20
2002,09,23,14,22,17.20
2002,09,23,14,23,17.30
2002,09,23,14,24,17.40
2002,09,23,14,25,17.50
2002,09,23,14,26,17.50
2002,09,23,14,27,17.50
2002,09,23,14,28,17.60
2002,09,23,14,29,17.70
2002,09,23,14,30,17.80
2002,09,23,14,31,17.80
2002,09,23,14,32,17.80
2002,09,23,14,33,17.90
2002,09,23,14,34,17.80
2002,09,23,14,35,17.80
2002,09,23,14,36,17.80
2002,09,23,14,37,17.90
2002,09,23,14,38,18.00
2002,09,23,14,39,18.00
2002,09,23,14,40,17.90
2002,09,23,14,41,17.90
2002,09,23,14,42,17.80
2002,09,23,14,43,17.70
2002,09,23,14,44,17.50
2002,09,23,14,45,17.30
2002,09,23,14,46,17.10
2002,09,23,14,47,17.00
2002,09,23,14,48,17.00
2002,09,23,14,49,17.00
2002,09,23,14,50,16.90
2002,09,23,14,51,16.90
2002,09,23,14,52,17.00
2002,09,23,14,53,17.10
2002,09,23,14,54,17.20
2002,09,23,14,55,17.30
2002,09,23,14,56,17.40
2002,09,23,14,57,17.30
2002,09,23,14,58,17.30
2002,09,23,14,59,17.30
2002,09,23,15,00,17.40
2002,09,23,15,01,17.50
2002,09,23,15,02,17.60
2002,09,23,15,03,17.80
2002,09,23,15,04,17.80
2002,09,23,15,05,17.90
2002,09,23,15,06,17.90
2002,09,23,15,07,17.90
2002,09,23,15,08,17.80
2002,09,23,15,09,17.70
2002,09,23,15,10,17.60
2002,09,23,15,11,17.60
2002,09,23,15,12,17.70
2002,09,23,15,13,17.80
2002,09,23,15,14,17.80
2002,09,23,15,15,17.90
2002,09,23,15,16,18.00
2002,09,23,15,17,18.20
2002,09,23,15,18,18.30
2002,09,23,15,19,18.50
2002,09,23,15,20,18.50
2002,09,23,15,21,18.60
2002,09,23,15,22,18.60
2002,09,23,15,23,18.60
2002,09,23,15,24,18.70
2002,09,23,15,25,18.60
2002,09,23,15,26,18.60
2002,09,23,15,27,18.50
2002,09,23,15,28,18.50
2002,09,23,15,29,18.50
2002,09,23,15,30,18.50
2002,09,23,15,31,18.40
2002,09,23,15,32,18.40
2002,09,23,15,33,18.30
2002,09,23,15,34,18.20
2002,09,23,15,35,18.20
2002,09,23,15,36,18.30
2002,09,23,15,37,18.30
2002,09,23,15,38,18.40
2002,09,23,15,39,18.50
2002,09,23,15,40,18.40
2002,09,23,15,41,18.20
2002,09,23,15,42,18.10
2002,09,23,15,43,18.00
2002,09,23,15,44,17.90
2002,09,23,15,45,17.90
2002,09,23,15,46,17.90
2002,09,23,15,47,17.80
2002,09,23,15,48,17.80
2002,09,23,15,49,17.80
2002,09,23,15,50,17.90
2002,09,23,15,51,18.10
2002,09,23,15,52,18.20
2002,09,23,15,53,18.30
2002,09,23,15,54,18.40
2002,09,23,15,55,18.50
2002,09,23,15,56,18.40
2002,09,23,15,57,18.40
2002,09,23,15,58,18.20
2002,09,23,15,59,18.20
2002,09,23,16,00,18.30
2002,09,23,16,01,18.30
2002,09,23,16,02,18.40
2002,09,23,16,03,18.40
2002,09,23,16,04,18.30
2002,09,23,16,05,18.40
2002,09,23,16,06,18.50
2002,09,23,16,07,18.50
2002,09,23,16,08,18.50
2002,09,23,16,09,18.50
2002,09,23,16,10,18.40
2002,09,23,16,11,18.40
2002,09,23,16,12,18.30
2002,09,23,16,13,18.00
2002,09,23,16,14,17.90
2002,09,23,16,15,17.90
2002,09,23,16,16,17.90
2002,09,23,16,17,17.80
2002,09,23,16,18,17.80
2002,09,23,16,19,17.80
2002,09,23,16,20,17.80
2002,09,23,16,21,17.80
2002,09,23,16,22,17.80
2002,09,23,16,23,17.80
2002,09,23,16,24,17.80
2002,09,23,16,25,17.80
2002,09,23,16,26,17.80
2002,09,23,16,27,17.80
2002,09,23,16,28,17.90
2002,09,23,16,29,18.10
2002,09,23,16,30,18.20
2002,09,23,16,31,18.20
2002,09,23,16,32,18.20
2002,09,23,16,33,18.20
2002,09,23,16,34,18.10
2002,09,23,16,35,18.00
2002,09,23,16,36,17.90
2002,09,23,16,37,17.90
2002,09,23,16,38,17.90
2002,09,23,16,39,17.90
2002,09,23,16,40,17.90
2002,09,23,16,41,17.80
2002,09,23,16,42,17.80
2002,09,23,16,43,17.80
2002,09,23,16,44,17.80
2002,09,23,16,45,17.80
2002,09,23,16,46,17.80
2002,09,23,16,47,17.80
2002,09,23,16,48,17.90
2002,09,23,16,49,17.90
2002,09,23,16,50,17.90
2002,09,23,16,51,17.90
2002,09,23,16,52,18.00
2002,09,23,16,53,18.10
2002,09,23,16,54,18.20
2002,09,23,16,55,18.20
2002,09,23,16,56,18.30
2002,09,23,16,57,18.50
2002,09,23,16,58,18.50
2002,09,23,16,59,18.50
2002,09,23,17,00,18.50
2002,09,23,17,01,18.60
2002,09,23,17,02,18.70
2002,09,23,17,03,18.80
2002,09,23,17,04,18.80
2002,09,23,17,05,18.90
2002,09,23,17,06,18.90
2002,09,23,17,07,18.90
2002,09,23,17,08,18.90
2002,09,23,17,09,18.90
2002,09,23,17,10,18.90
2002,09,23,17,11,18.90
2002,09,23,17,12,18.90
2002,09,23,17,13,18.80
2002,09,23,17,14,18.80
2002,09,23,17,15,18.80
2002,09,23,17,16,18.80
2002,09,23,17,17,18.80
2002,09,23,17,18,18.80
2002,09,23,17,19,18.80
2002,09,23,17,20,18.90
2002,09,23,17,21,18.90
2002,09,23,17,22,18.90
2002,09,23,17,23,18.90
2002,09,23,17,24,18.90
2002,09,23,17,25,18.90
2002,09,23,17,26,19.00
2002,09,23,17,27,19.10
2002,09,23,17,28,19.30
2002,09,23,17,29,19.40